Live-Position
3D-Globus wird geladen...
Über Starlink 6278
Group: 3 satellites
Beschreibung wird geladen...
Nächste Überflüge
Passes for default location (London). Set your location on the main map for personalized predictions.
Höhenverlauf
Loading altitude history...
No altitude history available
Zweizeiliger Elementsatz
1 56412U 23061AQ 26127.25325081 .00001341 00000-0 58244-4 0 9990
2 56412 43.0020 216.0820 0001573 275.1160 84.9513 15.27576360165831
Epoch: 7. Mai 2026 •
Age: 10 hours
Aktueller Status
Höhe 482.7 km
Geschwindigkeit 7.63 km/s
Subsatellitenpunkt 16.18°N,
92.43°W
Startdatum 4. Mai 2023
Alter 3 years
Typ internet
Startgruppe
Falcon 9 •
Group 5-6 •
50 satellites
Starlink 6156
56374
Starlink 6158 56375
Starlink 6188 56376
Starlink 6189 56377
Starlink 6191 56378
Starlink 6157 56379
Starlink 6159 56381
Starlink 6160 56382
Starlink 6166 56383
Starlink 6153 56384
Starlink 6173 56385
Starlink 5836 56386
Starlink 6178 56387
Starlink 6176 56388
Starlink 6145 56389
Starlink 6298 56391
Starlink 6301 56392
Starlink 6303 56393
Starlink 6305 56394
Starlink 6273 56395
...and 29 more
Technische Details
Klassifizierung Payload
Masse 305.00 kg
Trockenmasse 290.00 kg
Gesamtmasse 305.00 kg
Länge 0.20 m
Durchmesser 2.80 m
Spannweite 9.00 m
Form Box + pan
Hersteller SPXS
Bus-Typ Starlink
Phasenstatus In Orbit
Besitzer/Staat SPXS/US
Most Searched
Loading...